Preview of NWS' New Version of Forecast
This preview is not operational and should not be used for support decisions.

Regional Weather Roundup (RWR)

Issued by Newport/Morehead City, NC (MHX)

                            
960 
ASUS42 KMHX 212325
RWRMHX
WEATHER ROUNDUP FOR EASTERN NORTH CAROLINA
NATIONAL WEATHER SERVICE NEWPORT/MOREHEAD CITY NC
700 PM EDT THU JUN 21 2018

NOTE: "FAIR" INDICATES FEW OR NO CLOUDS BELOW 12,000 FEET
WITH NO SIGNIFICANT WEATHER AND/OR OBSTRUCTIONS TO VISIBILITY

NCZ015>017-031-032-045>047-102-103-220000-
NORTH COAST
  
CITY           SKY/WX    TMP DP  RH WIND       PRES   REMARKS
EDENTON        FAIR      90  78  68 CALM      29.74S HX 104           
ELIZABETH CITY FAIR      83  76  79 E8        29.74F                  
KITTY HAWK     FAIR      80  74  80 CALM      29.74S                  
MANTEO         FAIR      83  75  77 E5        29.75S                  

$$

NCZ045>047-081-094-103-104-220000-
CENTRAL COAST
  
CITY           SKY/WX    TMP DP  RH WIND       PRES   REMARKS
FRISCO         FAIR      84  80  88 SW12G20   29.76R                  

$$

NCZ095-097-098-100-101-220000-
SOUTHERN COAST
  
CITY           SKY/WX    TMP DP  RH WIND       PRES   REMARKS
BEAUFORT       CLOUDY    82  79  90 W7        29.79R THUNDER          
CEDAR ISLAND   NOT AVBL                                               
JACKSONVILLE   FAIR      88  78  72 S9        29.75R HX 101           
PINEY ISLAND   NOT AVBL                                               
WILMINGTON     FAIR      89  77  67 S9        29.76R HX 101           


$$

NCZ011>013-027>030-043-044-078>080-089-090>093-098-220000-
COASTAL PLAIN
  
CITY           SKY/WX    TMP DP  RH WIND       PRES   REMARKS
AHOSKIE        FAIR      82  77  84 MISG      29.75R                  
CLINTON        FAIR      90  76  64 CALM      29.75S HX 101           
ELIZABETHTOWN  FAIR      91  76  61 S5        29.76R HX 102           
GOLDSBORO      FAIR      94  71  47 W7        29.72S HX 101           
GREENVILLE     FAIR      91  68  46 CALM      29.77R                  
HAVELOCK       PTSUNNY   78  75  90 SW9       29.78R THUNDER          
KENANSVILLE    PTSUNNY   88  77  70 CALM      29.74S HX 100           
KINSTON        MOSUNNY   91  73  55 SW5       29.74S HX 100           
NEW BERN       FAIR      85  77  77 S12       29.76R                  
RICHLANDS      FAIR      92  74  55 SW7       29.75R HX 101           
ROCKY MOUNT    FAIR      88  72  58 W5        29.74R                  
WASHINGTON     PTSUNNY   87  74  65 SW10      29.74R                  
WHITEVILLE     FAIR      91  73  55 CALM      29.76R HX 100           

$$

AMZ130-135-150-152-154-156-158-170-250-252-270-ANZ085-086-088-633-658-670-220000-
MARINE OBSERVATIONS
  
STATION/POSITION TIME  TEMP    WIND        PRES    WAVE   SWELL
                       AIR SEA DIR/SP/G            HT/PER HT/PER
                 (UTC) (F)     (DEG/KT/KT) (MB)    (FT/S) (FT/S)
CHESAPEAKE LIGHT NOT AVBL
64 E VA BEACH    2250   79 80  120/  2/  4 1008.6    2/ 8   2/ 8
DUCK             2300   80 82   80/  6/  8 1006.9
2 E DUCK         2300      82                N/A     1/ 8
OREGON INLET     2300   81 85  340/  8/ 15 1007.6
13E OREGON INLT  2248      82                N/A     2/ 5   2/ 5
HATTERAS CG      2300   82 84  220/ 11/ 15 1007.5
DIAMOND BUOY     2310   82 81  220/ 16/ 19 1008.2
CAPE LOOKOUT     2300          210/ 14/ 17 1008.0
BEAUFORT LAB     2300   83 85  270/  3/  8 1008.6
30 SE NEW RVR IN 2308   82 82  210/ 12/ 16 1008.2
30 SE NEW RVR IN 2300      82                N/A     4/ 6
27 SE WRIGHTSVLE 2308   82 82  210/ 14/ 19 1008.7
5 SE WRIGHTSVLE  2308   81 80  180/ 14/ 17 1007.3
225 S CAPE HAT   2310      81  210/ 16/ 17 1012.1
41 SE CHARLESTON 2300          210/ 16/ 17 1009.3

$$